Starlink 32802

operational
NORAD ID: 62738 Int'l Des: 2025-014 Owner: SPXS Country: US Constellation: starlink
LEOCIRCULAR

About Starlink 32802

Description loading...

Live Position

Loading 3D Globe...

Upcoming Passes

Altitude History

Altitude vs Time

uPlot chart will show altitude changes over time

Two-Line Element Set

1 62738U 25014D 25257.48794699 .00014663 00000-0 54117-3 0 9996
2 62738 43.0024 69.1307 0002468 276.8707 83.1864 15.27586622 36311
Epoch: Sep 14, 2025 • Age: 40 hours

Current Status

Altitude 483.0 km
Velocity 7.63 km/s
Sub-Earth Point 2.13°N, 173.59°W
Launch Date Jan 21, 2025
Age 0.6 years
Type internet

Technical Details

Classification Payload
Mass 730.00 kg
Dry Mass 700.00 kg
Total Mass 730.00 kg
Length 0.30 m
Diameter 4.10 m
Span 29.00 m
Shape Box + pan
Manufacturer SPXS
Bus Type Starlink V2M
Phase Status In Orbit
Owner/State SPXS/US

Large Constellations

Loading constellations...